Weather History for Sarasota, FL

Change the Weather History Date:

Friday, November 30, 2012

  Actual Average Record
Temperature  
Mean Temperature 69 °F 66 °F  
Max Temperature 80 °F 76 °F 87 °F (1994)
Min Temperature 58 °F 57 °F 30 °F (1959)
Degree Days  
Heating Degree Days 0 2  
Month to date heating degree days 41 28  
Since 1 July heating degree days 41 33  
Cooling Degree Days 4 3  
Month to date cooling degree days 76 156  
Year to date cooling degree days 3724 3300  
Growing Degree Days 19 (Base 50)    
Moisture  
Dew Point 55 °F    
Average Humidity 67    
Maximum Humidity 84    
Minimum Humidity 43    
Precipitation  
Precipitation 0.00 in 0.09 in 2.75 in (1925)
Month to date precipitation 0.35 1.93  
Year to date precipitation 44.04 50.48  
Sea Level Pressure  
Sea Level Pressure 30.19 in    
Wind  
Wind Speed 8 mph (ENE)    
Max Wind Speed 17 mph    
Max Gust Speed 22 mph    
Visibility 10 miles    
Events      
T = Trace of Precipitation, MM = Missing Value Source: NWS Daily Summary

Daily Weather History Graph

Daily Weather History Graph

Search for Another Location

Airport:

Trip Planner

Search our weather history database for the weather conditions in past years. The results will help you decide how hot, cold, wet, or windy it might be!

Date:

Astronomy

Nov. 30, 2012 Rise Set
Actual Time 7:02 AM EST 5:35 PM EST
Civil Twilight 6:37 AM EST 6:00 PM EST
Nautical Twilight 6:08 AM EST 6:29 PM EST
Astronomical Twilight 5:40 AM EST 6:57 PM EST
Moon 7:28 PM EST (11/30) 8:34 AM EST (11/30)
Length of Visible Light 11h 23m
Length of Day
10h 32m
Waning Gibbous, 96% of the Moon is Illuminated
Nov 30
Waning Gibbous
Dec 6
Last Quarter
Dec 13
New
Dec 20
First Quarter
Dec 28
Full

Hourly Weather History & Observations

Time (EST) Temp. Dew Point Humidity Pressure Visibility Wind Dir Wind Speed Gust Speed Precip Events Conditions
12:53 AM 59.0 °F 54.0 °F 83% 30.22 in 10.0 mi ENE 8.1 mph - N/A   Clear
1:53 AM 61.0 °F 55.0 °F 81% 30.20 in 10.0 mi ENE 9.2 mph - N/A   Clear
2:53 AM 60.1 °F 54.0 °F 80% 30.20 in 10.0 mi NE 8.1 mph - N/A   Clear
3:53 AM 60.1 °F 55.0 °F 83% 30.20 in 10.0 mi NE 8.1 mph - N/A   Clear
4:53 AM 61.0 °F 55.0 °F 81% 30.20 in 10.0 mi NE 5.8 mph - N/A   Mostly Cloudy
5:53 AM 59.0 °F 54.0 °F 83% 30.21 in 10.0 mi NE 5.8 mph - N/A   Partly Cloudy
6:53 AM 59.0 °F 54.0 °F 83% 30.22 in 10.0 mi NE 6.9 mph - N/A   Partly Cloudy
7:53 AM 60.1 °F 55.0 °F 83% 30.23 in 10.0 mi NE 6.9 mph - N/A   Overcast
8:53 AM 64.9 °F 57.0 °F 75% 30.23 in 10.0 mi ENE 8.1 mph - N/A   Clear
9:53 AM 70.0 °F 57.0 °F 63% 30.24 in 10.0 mi ENE 12.7 mph 17.3 mph N/A   Clear
10:53 AM 75.0 °F 57.0 °F 53% 30.23 in 10.0 mi East 13.8 mph - N/A   Clear
11:53 AM 77.0 °F 55.9 °F 48% 30.21 in 10.0 mi East 12.7 mph - N/A   Clear
12:53 PM 79.0 °F 55.9 °F 45% 30.18 in 10.0 mi ENE 9.2 mph - N/A   Overcast
1:53 PM 78.1 °F 55.0 °F 45% 30.15 in 10.0 mi ENE 10.4 mph - N/A   Overcast
2:53 PM 78.1 °F 55.0 °F 45% 30.14 in 10.0 mi East 8.1 mph - N/A   Overcast
3:53 PM 77.0 °F 54.0 °F 45% 30.14 in 10.0 mi ENE 8.1 mph - N/A   Overcast
4:53 PM 75.9 °F 54.0 °F 46% 30.15 in 10.0 mi ENE 5.8 mph - N/A   Overcast
5:53 PM 73.9 °F 54.0 °F 50% 30.16 in 10.0 mi ENE 3.5 mph - N/A   Overcast
8:53 PM 66.9 °F 55.0 °F 66% 30.19 in 10.0 mi East 5.8 mph - N/A   Clear
9:53 PM 64.9 °F 55.0 °F 70% 30.19 in 10.0 mi East 5.8 mph - N/A   Clear
10:53 PM 63.0 °F 55.0 °F 75% 30.19 in 10.0 mi ENE 4.6 mph - N/A   Clear
11:53 PM 61.0 °F 55.0 °F 81% 30.19 in 10.0 mi ENE 5.8 mph - N/A   Clear